• In Hungary
  • List of Countries
  • For 7 days
  • Water Temperature
  • Satellite Maps
  • Weather Map
  • News
  • Weather Widgets
  • user-avatar
    Login

    Hourly Weather Skagen

    Today, 14 November, Wednesday

    Time Temperature Precipitation Wind Pressure Humidity
    00:00 +7°C° 0 mm 6 mps 762 mmHg 94%
    01:00 +7°C° 0 mm 6 mps 762 mmHg 93%
    02:00 +7°C° 0 mm 6 mps 763 mmHg 93%
    03:00 +7°C° 0 mm 6 mps 763 mmHg 93%
    04:00 +7°C° 0 mm 6 mps 763 mmHg 93%
    05:00 +7°C° 0 mm 6 mps 764 mmHg 94%
    06:00 +7°C° 0 mm 6 mps 764 mmHg 94%
    07:00 +7°C° 0 mm 6 mps 764 mmHg 94%
    08:00 +7°C° 0 mm 6 mps 765 mmHg 94%
    09:00 +7°C° 0 mm 6 mps 765 mmHg 93%
    10:00 +8°C° 0 mm 6 mps 766 mmHg 93%
    11:00 +8°C° 0 mm 6 mps 766 mmHg 90%
    12:00 +8°C° 0 mm 6 mps 766 mmHg 87%
    13:00 +9°C° 0 mm 6 mps 766 mmHg 84%
    14:00 +9°C° 0 mm 6 mps 766 mmHg 85%
    15:00 +8°C° 0 mm 6 mps 766 mmHg 87%
    16:00 +8°C° 0 mm 6 mps 766 mmHg 89%
    17:00 +8°C° 0.2 mm 6 mps 766 mmHg 90%
    18:00 +8°C° 0.2 mm 7 mps 766 mmHg 92%
    19:00 +8°C° 0.2 mm 7 mps 766 mmHg 93%
    20:00 +9°C° 0.6 mm 8 mps 766 mmHg 92%
    21:00 +9°C° 0.6 mm 8 mps 766 mmHg 92%
    22:00 +8°C° 0.6 mm 9 mps 766 mmHg 91%
    23:00 +8°C° 0.5 mm 9 mps 766 mmHg 90%

    Tomorrow, 15 November, Thursday

    Time Temperature Precipitation Wind Pressure Humidity
    00:00 +8°C° 0.5 mm 9 mps 766 mmHg 90%
    01:00 +8°C° 0.5 mm 9 mps 766 mmHg 89%
    02:00 +8°C° 0.2 mm 9 mps 766 mmHg 90%
    03:00 +8°C° 0.2 mm 9 mps 766 mmHg 90%
    04:00 +8°C° 0.2 mm 9 mps 766 mmHg 91%
    05:00 +7°C° 0 mm 8 mps 767 mmHg 92%
    06:00 +7°C° 0 mm 8 mps 767 mmHg 92%
    07:00 +8°C° 0 mm 7 mps 767 mmHg 93%
    08:00 +8°C° 0 mm 7 mps 768 mmHg 92%
    09:00 +8°C° 0 mm 7 mps 768 mmHg 92%
    10:00 +8°C° 0 mm 6 mps 768 mmHg 91%
    11:00 +8°C° 0 mm 6 mps 769 mmHg 89%
    12:00 +9°C° 0 mm 6 mps 769 mmHg 87%
    13:00 +9°C° 0 mm 6 mps 769 mmHg 86%
    14:00 +8°C° 0 mm 5 mps 769 mmHg 87%
    15:00 +8°C° 0 mm 5 mps 769 mmHg 89%
    16:00 +7°C° 0 mm 5 mps 770 mmHg 90%
    17:00 +7°C° 0 mm 5 mps 770 mmHg 90%
    18:00 +6°C° 0 mm 5 mps 770 mmHg 90%
    19:00 +6°C° 0 mm 5 mps 770 mmHg 90%
    20:00 +6°C° 0 mm 5 mps 770 mmHg 89%
    21:00 +6°C° 0 mm 5 mps 771 mmHg 89%
    22:00 +6°C° 0 mm 5 mps 771 mmHg 88%
    23:00 +6°C° 0 mm 5 mps 771 mmHg 88%

    Day after tomorrow, 16 November, Friday

    Time Temperature Precipitation Wind Pressure Humidity
    00:00 +5°C° 0 mm 5 mps 771 mmHg 88%
    01:00 +5°C° 0 mm 5 mps 771 mmHg 88%
    02:00 +5°C° 0 mm 5 mps 772 mmHg 89%
    03:00 +5°C° 0 mm 5 mps 772 mmHg 89%
    04:00 +5°C° 0 mm 5 mps 772 mmHg 89%
    05:00 +5°C° 0 mm 5 mps 772 mmHg 89%
    06:00 +5°C° 0 mm 5 mps 772 mmHg 89%
    07:00 +5°C° 0 mm 5 mps 773 mmHg 89%
    08:00 +5°C° 0 mm 5 mps 773 mmHg 88%
    09:00 +5°C° 0 mm 5 mps 773 mmHg 88%
    10:00 +6°C° 0 mm 5 mps 774 mmHg 87%
    11:00 +6°C° 0 mm 5 mps 774 mmHg 85%
    12:00 +7°C° 0 mm 5 mps 774 mmHg 83%
    13:00 +8°C° 0 mm 5 mps 774 mmHg 81%
    14:00 +7°C° 0 mm 4 mps 775 mmHg 84%
    15:00 +7°C° 0 mm 4 mps 775 mmHg 87%
    16:00 +6°C° 0 mm 4 mps 775 mmHg 90%
    17:00 +6°C° 0 mm 4 mps 775 mmHg 90%
    18:00 +6°C° 0 mm 4 mps 776 mmHg 91%
    19:00 +5°C° 0 mm 4 mps 776 mmHg 91%
    20:00 +5°C° 0 mm 4 mps 776 mmHg 91%
    21:00 +5°C° 0 mm 4 mps 777 mmHg 91%
    22:00 +5°C° 0 mm 4 mps 777 mmHg 90%
    23:00 +5°C° 0 mm 4 mps 777 mmHg 90%

    17 November, Saturday

    Time Temperature Precipitation Wind Pressure Humidity
    00:00 +5°C° 0 mm 3 mps 777 mmHg 90%
    01:00 +5°C° 0 mm 3 mps 777 mmHg 90%
    02:00 +5°C° 0 mm 3 mps 778 mmHg 90%
    03:00 +4°C° 0 mm 3 mps 778 mmHg 90%
    04:00 +4°C° 0 mm 3 mps 778 mmHg 90%
    05:00 +4°C° 0 mm 3 mps 778 mmHg 90%
    06:00 +4°C° 0 mm 3 mps 778 mmHg 90%
    07:00 +4°C° 0 mm 3 mps 779 mmHg 90%
    08:00 +5°C° 0 mm 3 mps 779 mmHg 89%
    09:00 +5°C° 0 mm 3 mps 779 mmHg 88%
    10:00 +5°C° 0 mm 3 mps 779 mmHg 88%
    11:00 +7°C° 0 mm 2 mps 780 mmHg 85%
    12:00 +8°C° 0 mm 2 mps 780 mmHg 83%
    13:00 +8°C° 0 mm 2 mps 780 mmHg 80%
    14:00 +8°C° 0 mm 2 mps 780 mmHg 82%
    15:00 +7°C° 0 mm 2 mps 780 mmHg 84%
    16:00 +7°C° 0 mm 2 mps 780 mmHg 86%
    17:00 +6°C° 0 mm 2 mps 780 mmHg 86%
    18:00 +7°C° 0 mm 1 mps 780 mmHg 86%
    19:00 +7°C° 0 mm 1 mps 780 mmHg 86%
    20:00 +7°C° 0 mm 1 mps 780 mmHg 86%
    21:00 +7°C° 0 mm 1 mps 780 mmHg 85%
    22:00 +6°C° 0 mm 1 mps 780 mmHg 85%
    23:00 +6°C° 0 mm 1 mps 780 mmHg 84%

    18 November, Sunday

    Time Temperature Precipitation Wind Pressure Humidity
    00:00 +6°C° 0 mm 1 mps 780 mmHg 83%
    01:00 +6°C° 0 mm 1 mps 780 mmHg 83%
    02:00 +6°C° 0 mm 1 mps 780 mmHg 83%
    03:00 +5°C° 0 mm 2 mps 780 mmHg 83%
    04:00 +5°C° 0 mm 2 mps 779 mmHg 83%
    05:00 +4°C° 0 mm 3 mps 779 mmHg 86%
    06:00 +4°C° 0 mm 3 mps 779 mmHg 88%
    07:00 +4°C° 0 mm 4 mps 779 mmHg 90%
    08:00 +5°C° 0 mm 4 mps 779 mmHg 91%
    09:00 +5°C° 0 mm 5 mps 780 mmHg 92%
    10:00 +5°C° 0 mm 5 mps 780 mmHg 92%
    11:00 +6°C° 0 mm 5 mps 780 mmHg 90%
    12:00 +5°C° 0 mm 6 mps 780 mmHg 87%
    13:00 +7°C° 0 mm 6 mps 780 mmHg 84%
    14:00 +6°C° 0 mm 7 mps 780 mmHg 84%
    15:00 +5°C° 0 mm 7 mps 780 mmHg 84%
    16:00 +5°C° 0 mm 8 mps 780 mmHg 84%
    17:00 +5°C° 0 mm 8 mps 780 mmHg 84%
    18:00 +4°C° 0 mm 8 mps 780 mmHg 83%
    19:00 +3°C° 0 mm 9 mps 780 mmHg 83%
    20:00 +3°C° 0 mm 9 mps 780 mmHg 83%
    21:00 +4°C° 0 mm 8 mps 781 mmHg 84%
    22:00 +2°C° 0 mm 8 mps 781 mmHg 85%
    23:00 +2°C° 0 mm 8 mps 781 mmHg 85%

    19 November, Monday

    Time Temperature Precipitation Wind Pressure Humidity
    00:00 +2°C° 0 mm 8 mps 781 mmHg 84%
    01:00 +3°C° 0 mm 7 mps 781 mmHg 84%
    02:00 +3°C° 0 mm 7 mps 781 mmHg 84%
    03:00 +2°C° 0 mm 7 mps 781 mmHg 84%
    04:00 +2°C° 0 mm 7 mps 781 mmHg 84%
    05:00 +2°C° 0 mm 7 mps 781 mmHg 84%
    06:00 +2°C° 0 mm 7 mps 781 mmHg 84%
    07:00 +2°C° 0 mm 7 mps 781 mmHg 85%
    08:00 +2°C° 0 mm 7 mps 781 mmHg 84%
    09:00 +2°C° 0 mm 7 mps 781 mmHg 83%
    10:00 +2°C° 0 mm 7 mps 781 mmHg 82%
    11:00 +2°C° 0 mm 7 mps 781 mmHg 80%
    12:00 +3°C° 0 mm 7 mps 780 mmHg 78%
    13:00 +3°C° 0 mm 6 mps 780 mmHg 75%
    14:00 +3°C° 0 mm 7 mps 780 mmHg 76%
    15:00 +2°C° 0 mm 7 mps 779 mmHg 77%
    16:00 +2°C° 0 mm 7 mps 779 mmHg 78%
    17:00 +2°C° 0 mm 7 mps 779 mmHg 78%
    18:00 +2°C° 0 mm 7 mps 779 mmHg 78%
    19:00 +2°C° 0 mm 7 mps 779 mmHg 78%
    20:00 +2°C° 0 mm 7 mps 779 mmHg 78%
    21:00 +2°C° 0 mm 7 mps 779 mmHg 78%
    22:00 +2°C° 0 mm 7 mps 779 mmHg 77%
    23:00 +1°C° 0 mm 6 mps 779 mmHg 77%
    Show more